[[{"header":{"parameterUnit":"m.s-1","parameterCategory":1,"la1":30.2991,"la2":30.254,"lo1":-89.0895,"lo2":-89.0444,"dy":0.0017,"dx":0.0017,"nx":28,"ny":28,"refTime":"2024-09-03T09:00:00:Z","depth":0,"parameterNumber":2,"parameterNumberName":"U-component_of_WINDS"},"data":[0,0,0,0,0,0,0,0,0,0,0,0,0,0,0,0,0,0,0,0,0,0,0,0,0,0,0,0,0,0,0,0,0,0,0,0,0,0,0,0,0,0,0,0,0,0,0,0,0,0,0,0,0,0,0,0,0,0,-7.3304,-7.3305,0,-7.3367,-7.3367,-7.3368,-7.3179,-7.3173,-7.3167,-7.3162,-7.3222,-7.3229,-7.3236,0,0,0,0,0,0,0,0,0,0,0,0,0,-7.3017,-7.3023,-7.3304,-7.3305,-7.3306,-7.3366,-7.3367,-7.3368,-7.318,-7.3173,-7.3166,-7.3159,-7.322,-7.3228,-7.3237,0,0,0,0,0,0,0,0,0,0,0,0,0,-7.3117,-7.3025,-7.3304,-7.3219,-7.3212,-7.3366,-7.3367,-7.3368,-7.3181,-7.3172,-7.3164,-7.3156,-7.3217,-7.3227,-7.3238,-7.3476,0,0,-7.327,-7.3274,0,0,0,0,0,0,0,0,-7.3112,-7.3128,-7.3231,-7.3225,-7.3218,-7.3256,-7.3288,-7.3404,-7.3183,-7.3193,-7.3161,-7.3151,-7.324,-7.3248,-7.3279,-7.3479,-7.3481,-7.3271,-7.3277,-7.3282,-7.3285,0,0,0,0,0,0,0,-7.3105,-7.3124,-7.3328,-7.3232,-7.3224,-7.3176,-7.3181,-7.3309,-7.3264,-7.3191,-7.3178,-7.3188,-7.3235,-7.3269,-7.3279,-7.3482,-7.327,-7.328,-7.3286,-7.329,-7.3879,-7.3887,0,0,0,0,0,0,-7.311,-7.3119,-7.3326,-7.333,-7.3142,-7.3189,-7.3194,-7.3252,-7.3262,-7.3256,-7.3195,-7.3179,-7.3256,-7.3267,-7.328,-7.3558,-7.3282,-7.3291,-7.3297,-7.3869,-7.3881,-7.3891,0,0,0,0,0,0,-7.3104,-7.313,-7.3324,-7.3221,-7.3242,-7.3203,-7.327,-7.3258,-7.3292,-7.3265,-7.3256,-7.3239,-7.3249,-7.3266,-7.3428,-7.3558,-7.3296,-7.3306,-7.3858,-7.3873,-7.3886,-7.4117,0,0,0,0,0,0,-7.3097,-7.3129,-7.322,-7.3225,-7.3249,-7.3473,-7.3278,-7.3266,-7.3311,-7.329,-7.3304,-7.3298,-7.3244,-7.3414,-7.3439,-7.3567,-7.3314,-7.3846,-7.3865,-7.3881,-7.4098,-7.4138,-7.4172,0,0,0,0,0,-7.3087,-7.3283,-7.3226,-7.3252,-7.3362,-7.3481,-7.3494,-7.3429,-7.3323,-7.3413,-7.3395,-7.3297,-7.354,-7.3432,-7.3459,-7.3592,-7.3838,-7.386,-7.388,-7.4082,-7.413,-7.4171,0,0,0,0,0,0,-7.3293,-7.3282,-7.3218,-7.3422,-7.3454,-7.3449,-7.3561,-7.3483,-7.3545,-7.3523,-7.3438,-7.3443,-7.3621,-7.3623,-7.3503,-7.3822,-7.367,-7.3698,-7.3815,-7.386,-7.3896,-7.3891,-7.3323,0,0,0,0,0,-7.3362,-7.3461,-7.3445,-7.3626,-7.3645,-7.3602,-7.3651,-7.3598,-7.3627,-7.3639,-7.3634,-7.3665,-7.3748,-7.3804,-7.3879,-7.4098,-7.4097,-7.4203,-7.424,-7.427,-7.4294,-7.4408,-7.4454,-7.396,-7.3959,-7.3959,0,0,-7.3506,-7.3512,-7.3579,-7.3667,-7.3686,-7.3789,-7.3614,-7.373,-7.3805,-7.3656,-7.381,-7.3808,-7.3836,-7.4028,-7.4112,-7.4035,-7.4431,-7.4297,-7.4321,-7.4328,-7.4434,-7.4481,-7.4523,-7.3974,-7.3971,-7.3969,0,0,-7.3819,-7.3835,-7.3986,-7.4009,-7.404,-7.4009,-7.4046,-7.4053,-7.4046,-7.4199,-7.4089,-7.4177,-7.4322,-7.4347,-7.4378,-7.4702,-7.4613,-7.4729,-7.492,-7.5032,-7.5071,-7.5105,-7.5219,-7.5261,-7.4753,-7.4754,-7.4754,0,-7.3993,-7.4145,-7.4074,-7.4198,-7.4239,-7.4111,-7.4262,-7.4287,-7.4342,-7.4372,-7.4286,-7.4465,-7.4476,-7.467,-7.4749,-7.478,-7.4818,-7.4726,-7.5072,-7.5105,-7.5136,-7.5243,-7.5286,-7.4768,-7.4766,-7.4765,-7.4763,0,-7.4356,-7.4463,-7.4582,-7.4638,-7.4693,-7.483,-7.4778,-7.4842,-7.4785,-7.4763,-7.492,-7.4928,-7.5002,-7.5045,-7.499,-7.5232,-7.5183,-7.5086,-7.4931,-7.5198,-7.5297,-7.5338,-7.4787,-7.4782,-7.4778,-7.4775,0,0,-7.48,-7.4816,-7.486,-7.4883,-7.4909,-7.4989,-7.512,-7.5193,-7.5249,-7.5291,-7.5397,-7.5523,-7.5433,-7.547,-7.5416,-7.5515,-7.5769,-7.5405,-7.5404,-7.5471,-7.6034,-7.6105,-7.6154,-7.5711,-7.5718,-7.5725,-7.6031,0,-7.5107,-7.5333,-7.5273,-7.5497,-7.5594,-7.5474,-7.5587,-7.5615,-7.5598,-7.5676,-7.5657,-7.5747,-7.5623,-7.5643,-7.5736,-7.5719,-7.588,-7.5696,-7.5807,-7.5812,-7.5802,-7.6206,-7.6283,-7.6571,-7.6069,-7.6076,-7.6081,0,-7.5495,-7.5553,-7.5788,-7.5796,-7.5835,-7.5938,-7.6,-7.6078,-7.6105,-7.6086,-7.6127,-7.6054,-7.6181,-7.6027,-7.62,-7.6076,-7.6118,-7.6117,-7.6126,-7.6132,-7.5961,-7.6222,-7.6662,-7.6705,-7.6141,-7.6136,-7.6132,0,-7.5793,-7.593,-7.6087,-7.6111,-7.6126,-7.6201,-7.621,-7.6229,-7.6277,-7.6331,-7.6361,-7.6429,-7.6466,-7.6519,-7.6466,-7.6359,-7.6647,-7.6489,-7.6632,-7.6634,-7.6697,-7.6693,-7.7148,-7.6728,-7.6727,-7.6727,-7.6726,0,-7.6141,-7.6289,-7.6221,-7.6318,-7.6479,-7.6408,-7.657,-7.6565,-7.6583,-7.6675,-7.6576,-7.6665,-7.6589,-7.6671,-7.663,-7.6778,-7.6796,-7.6783,-7.677,-7.6791,-7.6792,-7.6816,-7.6793,-7.6738,-7.6735,-7.6733,-7.6731,0,-7.6501,-7.6461,-7.6625,-7.6625,-7.6629,-7.6748,-7.6747,-7.6836,-7.6812,-7.693,-7.6954,-7.6916,-7.7007,-7.696,-7.7053,-7.7025,-7.7218,-7.7178,-7.7209,-7.7198,-7.7343,-7.733,-7.7827,-7.7888,-7.7431,-7.7436,-7.7439,0,-7.6724,-7.6835,-7.6848,-7.6904,-7.692,-7.7011,-7.7059,-7.6994,-7.7048,-7.7088,-7.7171,-7.7254,-7.7316,-7.7467,-7.7447,-7.7518,-7.7478,-7.7648,-7.7488,-7.7505,-7.7478,-7.7471,-7.7481,-7.7679,-7.7684,-7.7689,-7.7692,0,-7.7125,-7.71,-7.7175,-7.7243,-7.7304,-7.7354,-7.7396,-7.7447,-7.7382,-7.7447,-7.754,-7.7589,-7.7684,-7.7767,-7.7828,-7.7835,-7.7753,-7.7743,-7.778,-7.7801,-7.7814,-7.7807,-7.7294,-7.7731,-7.7727,-7.7725,-7.7723,-7.7721,-7.7422,-7.7514,-7.7538,-7.7624,-7.7649,-7.769,-7.7773,-7.776,-7.7837,-7.791,-7.7867,-7.7975,-7.7998,-7.8072,-7.809,-7.8172,-7.8104,-7.8158,-7.8171,-7.8185,-7.8204,-7.7803,-7.8184,-7.8182,-7.8181,-7.818,-7.8179,0,-7.7816,-7.7825,-7.7906,-7.7967,-7.8035,-7.7953,-7.7995,-7.8056,-7.8153,-7.8183,-7.8246,-7.8352,-7.8432,-7.8419,-7.849,-7.8559,-7.8523,-7.858,-7.8573,-7.8576,-7.8261,-7.8222,-7.8608,-7.8608,-7.8607,-7.8607,-7.8607,-7.8607,-7.8029,-7.8181,-7.8159,-7.8321,-7.8329,-7.8435,-7.8466,-7.8502,-7.8525,-7.8648,-7.8714,-7.8706,-7.8718,-7.879,-7.8859,-7.8853,-7.8883,-7.8954,-7.8934,-7.864,-7.8598,-7.8557,-7.8519,-7.8961,-7.8962,-7.924,-7.9243,-7.9245]},{"header":{"parameterUnit":"m.s-1","parameterCategory":1,"la1":30.2991,"la2":30.254,"lo1":-89.0895,"lo2":-89.0444,"dy":0.0017,"dx":0.0017,"nx":28,"ny":28,"refTime":"2024-09-03T09:00:00:Z","depth":0,"parameterNumber":3,"parameterNumberName":"V-component_of_WINDS"},"data":[0,0,0,0,0,0,0,0,0,0,0,0,0,0,0,0,0,0,0,0,0,0,0,0,0,0,0,0,0,0,0,0,0,0,0,0,0,0,0,0,0,0,0,0,0,0,0,0,0,0,0,0,0,0,0,0,0,0,0.1513,0.1514,0,0.1668,0.167,0.1672,0.1755,0.1755,0.1755,0.1755,0.1915,0.1919,0.1923,0,0,0,0,0,0,0,0,0,0,0,0,0,0.1291,0.1294,0.1512,0.1514,0.1516,0.1668,0.167,0.1672,0.1755,0.1755,0.1755,0.1755,0.1914,0.1919,0.1924,0,0,0,0,0,0,0,0,0,0,0,0,0,0.1411,0.1295,0.1512,0.1576,0.1583,0.1667,0.167,0.1673,0.1755,0.1755,0.1755,0.1756,0.1912,0.1918,0.1924,0.1957,0,0,0.1943,0.1946,0,0,0,0,0,0,0,0,0.1404,0.1419,0.1565,0.1572,0.158,0.1692,0.1651,0.1768,0.1755,0.169,0.1755,0.1756,0.1841,0.1853,0.1882,0.1965,0.1971,0.1944,0.1947,0.195,0.1952,0,0,0,0,0,0,0,0.1395,0.1412,0.1574,0.1567,0.1576,0.1598,0.1615,0.1673,0.1762,0.1695,0.1702,0.1719,0.1845,0.1875,0.1886,0.1974,0.1943,0.1949,0.1953,0.1955,0.2096,0.2096,0,0,0,0,0,0,0.1376,0.1405,0.1569,0.1579,0.1491,0.1602,0.1621,0.1656,0.1762,0.1778,0.1719,0.1722,0.1865,0.1879,0.1892,0.194,0.195,0.1956,0.1959,0.2096,0.2096,0.2096,0,0,0,0,0,0,0.1371,0.139,0.1563,0.1494,0.1517,0.1605,0.1644,0.1659,0.1689,0.1779,0.1796,0.1733,0.1866,0.1883,0.1941,0.1946,0.1958,0.1964,0.2096,0.2096,0.2096,0.2033,0,0,0,0,0,0,0.1365,0.1388,0.14,0.1493,0.1521,0.1608,0.1644,0.1662,0.17,0.1706,0.1797,0.1812,0.1867,0.1932,0.1947,0.1955,0.1969,0.2096,0.2096,0.2096,0.2035,0.2031,0.2028,0,0,0,0,0,0.1356,0.1376,0.14,0.142,0.1538,0.1608,0.1624,0.1686,0.17,0.1714,0.1772,0.1809,0.1943,0.1937,0.1955,0.1965,0.2096,0.2096,0.2096,0.2037,0.2032,0.2028,0,0,0,0,0,0,0.128,0.1389,0.1417,0.1467,0.1528,0.1622,0.1641,0.1679,0.1737,0.174,0.1816,0.1836,0.1887,0.1932,0.1923,0.2004,0.2024,0.2027,0.1972,0.1969,0.1965,0.1953,0.1974,0,0,0,0,0,0.1269,0.1316,0.1409,0.1444,0.1474,0.1552,0.1585,0.1628,0.1694,0.172,0.1783,0.1846,0.1903,0.1938,0.1995,0.2043,0.2065,0.2059,0.2055,0.2051,0.2054,0.2085,0.2084,0.2096,0.2096,0.2096,0,0,0.1246,0.1312,0.1337,0.1431,0.1483,0.1532,0.1573,0.1622,0.166,0.1728,0.1787,0.1835,0.1911,0.1964,0.1991,0.2003,0.2056,0.2051,0.2048,0.2052,0.2085,0.2084,0.2083,0.2096,0.2096,0.2096,0,0,0.123,0.1284,0.132,0.1373,0.1452,0.1504,0.1513,0.1603,0.1638,0.1698,0.1752,0.1798,0.1893,0.1946,0.1985,0.1994,0.2031,0.201,0.199,0.202,0.2019,0.2018,0.2023,0.2023,0.2012,0.2012,0.2012,0,0.1192,0.1267,0.1334,0.1382,0.1422,0.1488,0.1527,0.1574,0.1667,0.1695,0.1707,0.1831,0.1886,0.1954,0.1957,0.1986,0.1999,0.1999,0.2013,0.2014,0.2014,0.202,0.2021,0.2009,0.2009,0.201,0.201,0,0.1218,0.1269,0.1289,0.1379,0.1422,0.1465,0.154,0.1576,0.1617,0.1669,0.1731,0.1801,0.1874,0.1894,0.1933,0.1968,0.1974,0.1999,0.202,0.2009,0.2015,0.2018,0.2005,0.2006,0.2007,0.2007,0,0,0.1155,0.1284,0.129,0.1333,0.1427,0.1469,0.1516,0.1588,0.1618,0.1682,0.1724,0.1805,0.183,0.1875,0.1921,0.1947,0.1952,0.197,0.1973,0.1965,0.1998,0.1979,0.198,0.1978,0.1979,0.1979,0.1992,0,0.1153,0.1239,0.1303,0.1366,0.1416,0.1481,0.1522,0.1585,0.1636,0.1687,0.1744,0.18,0.1828,0.1856,0.1885,0.1945,0.196,0.1945,0.2019,0.2021,0.1998,0.1983,0.1962,0.1971,0.1995,0.1995,0.1996,0,0.1161,0.1223,0.1291,0.1383,0.1407,0.1442,0.1516,0.1563,0.1637,0.1673,0.1724,0.1773,0.1827,0.1844,0.1921,0.191,0.1945,0.198,0.1982,0.1991,0.2007,0.1992,0.1975,0.1976,0.2,0.2,0.1999,0,0.111,0.1211,0.1266,0.13,0.1408,0.1432,0.1479,0.1553,0.1594,0.1658,0.1686,0.1756,0.1794,0.1848,0.1915,0.1921,0.1986,0.2008,0.2018,0.2016,0.2028,0.2026,0.2016,0.205,0.205,0.205,0.205,0,0.1101,0.114,0.1245,0.1278,0.1325,0.1399,0.1444,0.1496,0.1562,0.1608,0.1669,0.1711,0.1797,0.185,0.1903,0.1961,0.1977,0.2008,0.2022,0.2003,0.1999,0.2026,0.2028,0.205,0.205,0.205,0.205,0,0.1051,0.1122,0.1186,0.1285,0.131,0.1341,0.1426,0.1462,0.1517,0.1575,0.1593,0.168,0.1746,0.1819,0.1909,0.1945,0.1999,0.2018,0.1974,0.1982,0.1988,0.1987,0.1995,0.2001,0.2029,0.2029,0.2029,0,0.104,0.1072,0.1175,0.121,0.1255,0.1311,0.1354,0.143,0.1472,0.1561,0.1586,0.1657,0.1718,0.1821,0.1893,0.1963,0.1985,0.1983,0.1995,0.1976,0.1986,0.1983,0.1988,0.1979,0.1978,0.1978,0.1977,0,0.1014,0.1049,0.1107,0.118,0.1229,0.129,0.1352,0.1378,0.1467,0.1512,0.1581,0.1628,0.1721,0.1792,0.1871,0.192,0.1964,0.1973,0.1979,0.196,0.1934,0.1949,0.1964,0.1972,0.1973,0.1973,0.1973,0.1973,0.0984,0.1017,0.1095,0.116,0.1216,0.1274,0.1314,0.1375,0.1434,0.1516,0.1558,0.1627,0.1704,0.1815,0.1864,0.192,0.1933,0.1942,0.1944,0.1945,0.1941,0.1925,0.1935,0.1935,0.1935,0.1935,0.1935,0,0.0962,0.1017,0.1075,0.1163,0.1214,0.1252,0.1325,0.1366,0.1426,0.1494,0.1553,0.1634,0.1704,0.1782,0.1857,0.1887,0.1909,0.1904,0.1903,0.1914,0.1924,0.1911,0.1885,0.1885,0.1885,0.1885,0.1885,0.1885,0.0957,0.1015,0.1059,0.1147,0.1202,0.127,0.1309,0.1364,0.1419,0.1507,0.1565,0.1617,0.169,0.1772,0.1838,0.186,0.1885,0.1874,0.1901,0.1909,0.1913,0.1917,0.1906,0.1878,0.1878,0.1887,0.1887,0.1887]}]]